583  
ASUS43 KIWX 200110  
RWRIWX  
 
KIWX WEATHER ROUNDUP  
NATIONAL WEATHER SERVICE NORTHERN INDIANA  
900 PM EDT WED SEP 19 2018  
 
NOTE: "FAIR" INDICATES FEW OR NO CLOUDS BELOW 12,000 FEET WITH NO  
SIGNIFICANT WEATHER AND/OR S TO VISIBILITY
.  
 
* THESE STATIONS ARE NOT UNDER NWS QUALITY CONTROL. THEY ALSO MAY NOT  
REPORT WEATHER SUCH AS PRECIPITATION OR FOG.
 
 
INZ001>027-200200-  
NORTHERN INDIANA  
 
CITY SKY/WX TMP DP RH WIND PRES REMARKS
 
GARY* MOCLDY 68 68 100 NE14 29.98F  
VALPARAISO FAIR 70 64 81 E7 29.97F  
LAPORTE* FAIR 70 67 91 E3 29.99F  
KNOX* FAIR 73 68 83 N3 30.00S  
SOUTH BEND FAIR 76 67 73 E10 30.00F  
ELKHART* FAIR 73 66 78 E6 30.02S  
GOSHEN FAIR 71 68 90 E7 30.02S  
LOGANSPORT* MOCLDY 77 68 73 SE6 30.02R  
ROCHESTER* FAIR 77 66 69 E6 30.02S  
WARSAW* FAIR 72 66 83 E5 30.02S  
AUBURN* FAIR 70 66 88 E7 30.05S  
FORT WAYNE MOCLDY 74 68 81 E8 30.03S  
HUNTINGTON* FAIR 73 67 81 NE5 30.02S  
 

 
INZ028>050-200200-  
CENTRAL INDIANA  
 
CITY SKY/WX TMP DP RH WIND PRES REMARKS
 
LAFAYETTE FAIR 76 69 79 E10 29.98R  
KOKOMO* HVY RAIN 76 70 82 CALM 30.03R  
MUNCIE* FAIR 78 66 66 E8 30.02R  
INDIANAPOLIS MOCLDY 81 68 64 CALM 29.99R  
 

 
MIZ043>046-050>051-056>058-064>065-071>073-077>080-200200-  
SOUTHWEST LOWER MICHIGAN  
 
CITY SKY/WX TMP DP RH WIND PRES REMARKS
 
BATTLE CREEK FAIR 74 65 73 SE6 30.04F  
BENTON HARBOR FAIR 68 64 87 CALM 29.99F  
COLDWATER* FAIR 71 65 83 SE3 30.05R  
HILLSDALE* CLOUDY 64 61 88 E6 30.05F FOG  
HOLLAND FAIR 68 62 81 NE3 30.01F  
GRAND RAPIDS MOCLDY 71 64 78 E9 30.02F  
KALAMAZOO FAIR 70 65 84 CALM 30.02F  
STURGIS* FAIR 72 64 76 E6 30.03S  
THREE RIVERS* FAIR 72 64 76 SE3 30.04R  
 

 
OHZ001>008-015>018-024>025-200200-  
NORTHWEST OHIO  
 
CITY SKY/WX TMP DP RH WIND PRES REMARKS
 
WAUSEON* FAIR 66 66 100 E7 30.06F  
DEFIANCE FAIR 69 64 84 E9 30.05S  
FINDLAY FAIR 71 62 73 NE12 30.06R  
OTTAWA* FAIR 66 61 82 E8 30.08R  
TOLEDO EXPRESS FAIR 67 61 81 E5 30.07R  
LIMA FAIR 71 64 78 NE10 30.06R  
 

 
AND FOR LAKE MICHIGAN COASTAL AND OPEN LAKE BUOY OBSERVATIONS  
 
STATION/POSITION TEMP WIND PRES VSBY WAVE
 
AIR SEA DIR/SP/G HT/PER  
(F) (DEG/KT/KT) (MB) (MI) (FT/S)  
CALUMET HARBOR 68 60/ 9/ 11 1014.2F  
MICHIGAN CITY 68 50/ 11/ 12 N/A  
BURNS HARBOR 68 80/ 8/ 8 1014.9F  
SAINT JOSEPH 68 10/ 1/ 2 1015.9  
SOUTH LAKE BUOY 68 70 50/ 10/ 12 1015.7R 2/ 5  
4 MI NW BRIDGMAN 66 68 120/ 6/ 8 1015.3 2/ 4  
MICHIGAN CITY 69 71 80/ 12/ 14 N/A 3/ 4  
 

 

 
 
 
CLICK HERE TO GO TO PREVIOUS BULLETINS.

The Nexlab IN Page
The Nexlab OH Page
The Nexlab MI Page Main Text Page